Weather History for Gallivare, Sweden

Change the Weather History Date:

Friday, February 15, 2013

  Actual Average Record
Temperature  
Mean Temperature 22 °F -  
Max Temperature 26 °F - - ()
Min Temperature 19 °F - - ()
Degree Days  
Heating Degree Days 42    
Moisture  
Dew Point 21 °F    
Average Humidity 85    
Maximum Humidity 93    
Minimum Humidity 80    
Precipitation  
Precipitation 0.00 in - - ()
Sea Level Pressure  
Sea Level Pressure 30.09 in    
Wind  
Wind Speed 4 mph ()    
Max Wind Speed 9 mph    
Max Gust Speed -    
Visibility 6.2 miles    
Events Snow    
T = Trace of Precipitation, MM = Missing Value Source: Averaged Metar Reports

Daily Weather History Graph

Daily Weather History Graph

Search for Another Location

Airport:

Trip Planner

Search our weather history database for the weather conditions in past years. The results will help you decide how hot, cold, wet, or windy it might be!

Date:

Astronomy

Feb. 15, 2013 Rise Set
Actual Time 7:48 AM CET 3:54 PM CET
Civil Twilight 6:49 AM CET 4:53 PM CET
Nautical Twilight 5:46 AM CET 5:56 PM CET
Astronomical Twilight 4:45 AM CET 6:58 PM CET
Moon 7:28 AM CET (2/15) No Moon Set
Length of Visible Light 10h 03m
Length of Day
8h 05m
Waxing Crescent, 28% of the Moon is Illuminated
Feb 15
Waxing Crescent
Feb 17
First Quarter
Feb 25
Full
Mar 4
Last Quarter
Mar 11
New

Hourly Weather History & Observations

Time (CET) Temp. Windchill Dew Point Humidity Pressure Visibility Wind Dir Wind Speed Gust Speed Precip Events Conditions
12:20 AM 26.6 °F 21.2 °F 23.0 °F 86% 30.15 in 6.2 mi South 4.6 mph - N/A   Overcast
12:50 AM 26.6 °F 22.6 °F 23.0 °F 86% 30.15 in 6.2 mi South 3.5 mph - N/A   Overcast
1:20 AM 26.6 °F 21.2 °F 23.0 °F 86% 30.15 in 6.2 mi South 4.6 mph - N/A   Overcast
1:50 AM 26.6 °F 19.1 °F 23.0 °F 86% 30.15 in 6.2 mi South 6.9 mph - N/A   Overcast
2:20 AM 26.6 °F 21.2 °F 23.0 °F 86% 30.15 in 6.2 mi SSE 4.6 mph - N/A   Overcast
2:50 AM 26.6 °F 22.6 °F 23.0 °F 86% 30.15 in 6.2 mi South 3.5 mph - N/A   Overcast
3:20 AM 26.6 °F 21.2 °F 23.0 °F 86% 30.15 in 6.2 mi South 4.6 mph - N/A   Overcast
3:50 AM 26.6 °F 19.1 °F 21.2 °F 80% 30.12 in 6.2 mi South 6.9 mph - N/A   Overcast
4:20 AM 26.6 °F 22.6 °F 21.2 °F 80% 30.12 in 6.2 mi SSW 3.5 mph - N/A   Overcast
4:50 AM 24.8 °F 20.5 °F 21.2 °F 86% 30.12 in 6.2 mi South 3.5 mph - N/A   Overcast
5:20 AM 23.0 °F 17.0 °F 19.4 °F 86% 30.12 in 6.2 mi South 4.6 mph - N/A   Scattered Clouds
5:50 AM 21.2 °F 16.4 °F 17.6 °F 86% 30.12 in 6.2 mi SSE 3.5 mph - N/A   Partly Cloudy
6:20 AM 19.4 °F - 17.6 °F 93% 30.12 in - Variable 1.2 mph - N/A   Clear
7:20 AM 19.4 °F - 17.6 °F 93% 30.12 in 6.2 mi Variable 1.2 mph - N/A   Overcast
7:50 AM 21.2 °F 16.4 °F 17.6 °F 86% 30.12 in 6.2 mi SSW 3.5 mph - N/A   Overcast
8:20 AM 23.0 °F 17.0 °F 17.6 °F 80% 30.12 in 6.2 mi South 4.6 mph - N/A   Overcast
8:50 AM 23.0 °F 18.4 °F 19.4 °F 86% 30.12 in 6.2 mi South 3.5 mph - N/A   Overcast
9:50 AM 24.8 °F - 19.4 °F 80% 30.09 in 6.2 mi Calm Calm - N/A   Overcast
10:20 AM 24.8 °F - 21.2 °F 86% 30.09 in 6.2 mi Variable 2.3 mph - N/A   Overcast
10:50 AM 24.8 °F - 21.2 °F 86% 30.12 in 6.2 mi Variable 1.2 mph - N/A   Overcast
11:20 AM 26.6 °F 21.2 °F 21.2 °F 80% 30.12 in 6.2 mi SSE 4.6 mph - N/A   Overcast
11:50 AM 26.6 °F 21.2 °F 21.2 °F 80% 30.09 in 6.2 mi SSE 4.6 mph - N/A   Overcast
12:20 PM 26.6 °F 21.2 °F 21.2 °F 80% 30.09 in 6.2 mi South 4.6 mph - N/A   Overcast
12:50 PM 26.6 °F 21.2 °F 21.2 °F 80% 30.09 in 6.2 mi Variable 4.6 mph - N/A   Overcast
1:20 PM 26.6 °F 19.1 °F 21.2 °F 80% 30.09 in 6.2 mi SSW 6.9 mph - N/A   Overcast
1:50 PM 24.8 °F 15.3 °F 19.4 °F 80% 30.09 in 6.2 mi SSW 9.2 mph - N/A   Overcast
2:20 PM 24.8 °F 16.1 °F 19.4 °F 80% 30.09 in 6.2 mi South 8.1 mph - N/A   Overcast
2:50 PM 24.8 °F 15.3 °F 19.4 °F 80% 30.09 in 6.2 mi SSW 9.2 mph - N/A   Overcast
3:20 PM 24.8 °F 16.1 °F 19.4 °F 80% 30.09 in 6.2 mi SSW 8.1 mph - N/A   Overcast
3:50 PM 24.8 °F 16.1 °F 19.4 °F 80% 30.06 in 6.2 mi SSW 8.1 mph - N/A   Overcast
4:20 PM 26.6 °F 22.6 °F 21.2 °F 80% 30.06 in 6.2 mi South 3.5 mph - N/A   Overcast
4:50 PM 24.8 °F 20.5 °F 21.2 °F 86% 30.06 in 6.2 mi Variable 3.5 mph - N/A   Overcast
5:20 PM 24.8 °F - 21.2 °F 86% 30.06 in 6.2 mi Calm Calm - N/A   Overcast
5:50 PM 24.8 °F - 21.2 °F 86% 30.06 in 6.2 mi Variable 2.3 mph - N/A   Overcast
6:20 PM 24.8 °F 20.5 °F 21.2 °F 86% 30.06 in 6.2 mi South 3.5 mph - N/A   Overcast
6:50 PM 24.8 °F 15.3 °F 21.2 °F 86% 30.06 in 6.2 mi South 9.2 mph - N/A   Overcast
7:20 PM 24.8 °F 17.9 °F 19.4 °F 80% 30.06 in 6.2 mi Variable 5.8 mph - N/A   Overcast
7:50 PM 24.8 °F - 19.4 °F 80% 30.04 in 6.2 mi Calm Calm - N/A   Overcast
8:20 PM 23.0 °F - 21.2 °F 93% 30.04 in 6.2 mi Calm Calm - N/A   Overcast
8:50 PM 23.0 °F - 21.2 °F 93% 30.04 in 6.2 mi East 2.3 mph - N/A   Overcast
9:20 PM 23.0 °F - 21.2 °F 93% 30.04 in 6.2 mi Calm Calm - N/A Snow Light Snow
9:50 PM 23.0 °F - 21.2 °F 93% 30.04 in 6.2 mi Calm Calm - N/A Snow Light Snow
10:20 PM 23.0 °F - 21.2 °F 93% 30.04 in 6.2 mi Calm Calm - N/A Snow Light Snow
10:50 PM 23.0 °F - 21.2 °F 93% 30.04 in 6.2 mi NNE 1.2 mph - N/A Snow Light Snow
11:20 PM 23.0 °F - 21.2 °F 93% 30.01 in 6.2 mi Calm Calm - N/A Snow Snow Grains
11:50 PM 23.0 °F - 21.2 °F 93% 30.01 in 6.2 mi ENE 2.3 mph - N/A Snow Snow Grains